Fort Knox, KY

11:23 PM EDT on July 23, 2017 (GMT -0400)
Godman Army Air Field

Weather History for KFTK - April, 2014

Change the Weather History Date:

Friday, April 18, 2014

  Actual Average Record
Temperature  
Mean Temperature 56 °F -  
Max Temperature 70 °F 65 °F 86 °F (2002)
Min Temperature 42 °F 45 °F 26 °F (2001)
Degree Days  
Heating Degree Days 9    
Growing Degree Days 6 (Base 50)    
Moisture  
Dew Point 39 °F    
Average Humidity 55    
Maximum Humidity 81    
Minimum Humidity 28    
Precipitation  
Precipitation 0.00 in - - ()
Sea Level Pressure  
Sea Level Pressure 30.25 in    
Wind  
Wind Speed 1 mph (ENE)    
Max Wind Speed 7 mph    
Max Gust Speed -    
Visibility 8 miles    
Events      
Averages and records for this station are not official NWS values.
T = Trace of Precipitation, MM = Missing Value Source: NWS Daily Summary

Daily Weather History Graph

Daily Weather History Graph

Search for Another Location

Airport or City:

Trip Planner

Search our weather history database for the weather conditions in past years. The results will help you decide how hot, cold, wet, or windy it might be!

Date:

Astronomy

Apr. 18, 2014 Rise Set
Actual Time 7:04 AM EDT 8:22 PM EDT
Civil Twilight 6:37 AM EDT 8:49 PM EDT
Nautical Twilight 6:04 AM EDT 9:22 PM EDT
Astronomical Twilight 5:30 AM EDT 9:57 PM EDT
Moon No Moon Rise 9:28 AM EDT (4/18)
Length of Visible Light 14h 12m
Length of Day
13h 18m
Waning Gibbous, 87% of the Moon is Illuminated
Apr 18
Waning Gibbous
Apr 22
Last Quarter
Apr 29
New
May 6
First Quarter
May 14
Full

Hourly Weather History & Observations

Time (EDT) Temp. Dew Point Humidity Pressure Visibility Wind Dir Wind Speed Gust Speed Precip Events Conditions
12:58 AM 50.0 °F 36.9 °F 61% 30.26 in 6.0 mi Calm Calm - N/A   Haze
1:58 AM 48.7 °F 37.0 °F 64% 30.25 in 6.0 mi Calm Calm - N/A   Haze
2:58 AM 46.4 °F 37.2 °F 70% 30.26 in 6.0 mi Calm Calm - N/A   Haze
3:58 AM 45.7 °F 38.3 °F 75% 30.27 in 6.0 mi Calm Calm - N/A   Haze
4:58 AM 45.1 °F 38.7 °F 78% 30.27 in 5.0 mi Calm Calm - N/A   Haze
5:58 AM 45.3 °F 36.7 °F 72% 30.27 in 5.0 mi Calm Calm - N/A   Haze
6:58 AM 43.0 °F 36.5 °F 78% 30.28 in 4.0 mi Calm Calm - N/A   Haze
7:22 AM 42.8 °F 37.4 °F 81% 30.27 in 7.0 mi Calm Calm - N/A   Partly Cloudy
7:25 AM 42.8 °F 37.4 °F 81% 30.27 in 6.0 mi Calm Calm - N/A   Partly Cloudy
7:58 AM 44.6 °F 39.0 °F 81% 30.29 in 10.0 mi Calm Calm - N/A   Mostly Cloudy
8:58 AM 49.6 °F 39.9 °F 69% 30.30 in 10.0 mi Calm Calm - N/A   Scattered Clouds
9:58 AM 54.3 °F 41.4 °F 62% 30.30 in 10.0 mi South 3.5 mph - N/A   Clear
10:58 AM 62.8 °F 43.2 °F 49% 30.31 in 10.0 mi South 5.8 mph - N/A   Clear
11:58 AM 66.4 °F 44.4 °F 45% 30.30 in 10.0 mi WSW 3.5 mph - N/A   Clear
12:58 PM 66.7 °F 42.8 °F 42% 30.29 in 10.0 mi North 5.8 mph - N/A   Partly Cloudy
1:58 PM 67.5 °F 40.8 °F 38% 30.27 in 10.0 mi ESE 5.8 mph - N/A   Scattered Clouds
2:58 PM 68.4 °F 39.6 °F 35% 30.26 in 10.0 mi Calm Calm - N/A   Mostly Cloudy
3:58 PM 68.2 °F 39.7 °F 35% 30.24 in 10.0 mi East 1.2 mph - N/A   Mostly Cloudy
4:58 PM 69.4 °F 37.2 °F 31% 30.22 in 10.0 mi SSW 3.5 mph - N/A   Clear
5:58 PM 70.2 °F 35.8 °F 28% 30.20 in 10.0 mi North 5.8 mph - N/A   Clear
6:58 PM 69.1 °F 37.2 °F 31% 30.18 in 10.0 mi North 3.5 mph - N/A   Clear
7:58 PM 66.6 °F 39.7 °F 37% 30.19 in 10.0 mi East 6.9 mph - N/A   Clear
8:58 PM 64.2 °F 38.1 °F 38% 30.20 in 10.0 mi East 4.6 mph - N/A   Clear
9:58 PM 62.2 °F 38.5 °F 41% 30.21 in 10.0 mi ENE 2.3 mph - N/A   Clear
10:58 PM 57.7 °F 40.1 °F 52% 30.21 in 10.0 mi Calm Calm - N/A   Clear
11:58 PM 53.2 °F 40.8 °F 63% 30.21 in 10.0 mi North 3.5 mph - N/A   Clear